When you browse on this site, cookies collect data to enhance your experience and personalize the content and advertising you see.
Visit our Privacy Policy to learn more. By continuing to use the site, you agree to this use of cookies and data.

Tiempo cada hora Diapaga

Hoy, 13 Agosto, Jueves

Tiempo Temperatura Precipitaciones Viento Presión Humedad
00:00 +26°C° 0 mm 1 mps 736 mmHg 81%
01:00 +26°C° 0 mm 1 mps 736 mmHg 83%
02:00 +25°C° 0 mm 1 mps 736 mmHg 85%
03:00 +25°C° 0 mm 1 mps 736 mmHg 87%
04:00 +25°C° 0 mm 1 mps 736 mmHg 88%
05:00 +25°C° 0 mm 1 mps 736 mmHg 89%
06:00 +25°C° 0 mm 1 mps 736 mmHg 90%
07:00 +26°C° 0 mm 2 mps 737 mmHg 84%
08:00 +28°C° 0 mm 2 mps 737 mmHg 77%
09:00 +30°C° 0 mm 2 mps 737 mmHg 70%
10:00 +31°C° 0 mm 2 mps 737 mmHg 65%
11:00 +32°C° 0 mm 2 mps 736 mmHg 60%
12:00 +34°C° 0 mm 2 mps 736 mmHg 55%
13:00 +34°C° 0.1 mm 2 mps 735 mmHg 56%
14:00 +34°C° 0.1 mm 3 mps 735 mmHg 57%
15:00 +34°C° 0.1 mm 3 mps 734 mmHg 58%
16:00 +33°C° 0.8 mm 3 mps 734 mmHg 65%
17:00 +30°C° 0.8 mm 2 mps 734 mmHg 72%
18:00 +29°C° 0.8 mm 2 mps 734 mmHg 79%
19:00 +28°C° 0.5 mm 2 mps 734 mmHg 81%
20:00 +28°C° 0.5 mm 2 mps 734 mmHg 83%
21:00 +27°C° 0.5 mm 2 mps 735 mmHg 85%
22:00 +27°C° 0.3 mm 2 mps 735 mmHg 86%
23:00 +27°C° 0.3 mm 2 mps 734 mmHg 87%

Mañana, 14 Agosto, Viernes

Tiempo Temperatura Precipitaciones Viento Presión Humedad
00:00 +26°C° 0.3 mm 2 mps 734 mmHg 89%
01:00 +26°C° 1.2 mm 2 mps 734 mmHg 90%
02:00 +26°C° 1.2 mm 2 mps 733 mmHg 92%
03:00 +25°C° 1.2 mm 2 mps 733 mmHg 94%
04:00 +25°C° 0 mm 2 mps 733 mmHg 94%
05:00 +25°C° 0 mm 3 mps 733 mmHg 94%
06:00 +25°C° 0 mm 3 mps 733 mmHg 93%
07:00 +26°C° 0 mm 3 mps 734 mmHg 89%
08:00 +28°C° 0 mm 3 mps 734 mmHg 84%
09:00 +29°C° 0 mm 4 mps 735 mmHg 80%
10:00 +30°C° 0 mm 4 mps 734 mmHg 75%
11:00 +32°C° 0 mm 4 mps 734 mmHg 69%
12:00 +34°C° 0 mm 4 mps 733 mmHg 64%
13:00 +34°C° 0 mm 4 mps 733 mmHg 64%
14:00 +34°C° 0 mm 4 mps 732 mmHg 64%
15:00 +34°C° 0 mm 4 mps 732 mmHg 64%
16:00 +33°C° 0.5 mm 4 mps 731 mmHg 71%
17:00 +30°C° 0.5 mm 3 mps 731 mmHg 77%
18:00 +29°C° 0.5 mm 3 mps 731 mmHg 84%
19:00 +28°C° 0.4 mm 3 mps 731 mmHg 86%
20:00 +27°C° 0.4 mm 4 mps 732 mmHg 89%
21:00 +27°C° 0.4 mm 4 mps 732 mmHg 91%
22:00 +26°C° 1 mm 4 mps 732 mmHg 92%
23:00 +26°C° 1 mm 4 mps 733 mmHg 94%

Pasado mañana, 15 Agosto, Sábado

Tiempo Temperatura Precipitaciones Viento Presión Humedad
00:00 +25°C° 1 mm 4 mps 733 mmHg 95%
01:00 +25°C° 0.5 mm 4 mps 733 mmHg 95%
02:00 +25°C° 0.5 mm 5 mps 732 mmHg 95%
03:00 +25°C° 0.5 mm 5 mps 732 mmHg 94%
04:00 +25°C° 0 mm 5 mps 733 mmHg 94%
05:00 +25°C° 0 mm 5 mps 733 mmHg 94%
06:00 +25°C° 0 mm 5 mps 733 mmHg 94%
07:00 +25°C° 0.2 mm 5 mps 734 mmHg 92%
08:00 +26°C° 0.2 mm 5 mps 734 mmHg 90%
09:00 +26°C° 0.2 mm 5 mps 735 mmHg 88%
10:00 +27°C° 0 mm 5 mps 735 mmHg 84%
11:00 +28°C° 0 mm 4 mps 735 mmHg 80%
12:00 +29°C° 0 mm 4 mps 735 mmHg 75%
13:00 +29°C° 0.1 mm 4 mps 734 mmHg 74%
14:00 +30°C° 0.1 mm 3 mps 733 mmHg 73%
15:00 +30°C° 0.1 mm 3 mps 733 mmHg 72%
16:00 +29°C° 0 mm 3 mps 733 mmHg 76%
17:00 +28°C° 0 mm 3 mps 733 mmHg 81%
18:00 +27°C° 0 mm 3 mps 733 mmHg 86%
19:00 +26°C° 0 mm 3 mps 733 mmHg 86%
20:00 +26°C° 0 mm 3 mps 734 mmHg 87%
21:00 +25°C° 0 mm 3 mps 734 mmHg 87%
22:00 +25°C° 0 mm 3 mps 734 mmHg 89%
23:00 +25°C° 0 mm 3 mps 734 mmHg 91%

16 Agosto, Domingo

Tiempo Temperatura Precipitaciones Viento Presión Humedad
00:00 +24°C° 0 mm 3 mps 734 mmHg 92%
01:00 +24°C° 0 mm 3 mps 734 mmHg 92%
02:00 +24°C° 0 mm 3 mps 734 mmHg 91%
03:00 +24°C° 0 mm 3 mps 734 mmHg 90%
04:00 +24°C° 0 mm 3 mps 734 mmHg 90%
05:00 +23°C° 0 mm 4 mps 734 mmHg 89%
06:00 +23°C° 0 mm 4 mps 734 mmHg 88%
07:00 +23°C° 0 mm 4 mps 735 mmHg 87%
08:00 +25°C° 0 mm 4 mps 735 mmHg 86%
09:00 +25°C° 0 mm 4 mps 735 mmHg 85%
10:00 +27°C° 0 mm 4 mps 735 mmHg 80%
11:00 +28°C° 0 mm 4 mps 735 mmHg 74%
12:00 +30°C° 0 mm 4 mps 735 mmHg 69%
13:00 +30°C° 0 mm 4 mps 734 mmHg 67%
14:00 +32°C° 0 mm 5 mps 733 mmHg 66%
15:00 +33°C° 0 mm 5 mps 733 mmHg 64%
16:00 +30°C° 0 mm 4 mps 733 mmHg 69%
17:00 +29°C° 0 mm 3 mps 733 mmHg 74%
18:00 +28°C° 0 mm 2 mps 733 mmHg 78%
19:00 +28°C° 0 mm 2 mps 733 mmHg 80%
20:00 +27°C° 0 mm 2 mps 734 mmHg 81%
21:00 +26°C° 0 mm 2 mps 735 mmHg 83%
22:00 +26°C° 0 mm 2 mps 735 mmHg 83%
23:00 +26°C° 0 mm 2 mps 734 mmHg 83%

17 Agosto, Lunes

Tiempo Temperatura Precipitaciones Viento Presión Humedad
00:00 +26°C° 0 mm 2 mps 734 mmHg 84%
01:00 +26°C° 0 mm 2 mps 734 mmHg 85%
02:00 +26°C° 0 mm 2 mps 734 mmHg 86%
03:00 +25°C° 0 mm 2 mps 734 mmHg 87%
04:00 +25°C° 0 mm 2 mps 734 mmHg 88%
05:00 +25°C° 0 mm 2 mps 734 mmHg 89%
06:00 +25°C° 0 mm 2 mps 734 mmHg 90%
07:00 +26°C° 0 mm 3 mps 734 mmHg 84%
08:00 +28°C° 0 mm 3 mps 735 mmHg 78%
09:00 +29°C° 0 mm 4 mps 735 mmHg 72%
10:00 +32°C° 0 mm 4 mps 735 mmHg 68%
11:00 +33°C° 0 mm 3 mps 734 mmHg 64%
12:00 +34°C° 0 mm 3 mps 734 mmHg 59%
13:00 +34°C° 0 mm 3 mps 733 mmHg 59%
14:00 +35°C° 0 mm 3 mps 732 mmHg 58%
15:00 +35°C° 0 mm 3 mps 732 mmHg 58%
16:00 +34°C° 0 mm 2 mps 732 mmHg 62%
17:00 +32°C° 0 mm 2 mps 732 mmHg 66%
18:00 +30°C° 0 mm 2 mps 732 mmHg 71%
19:00 +30°C° 0 mm 2 mps 732 mmHg 72%
20:00 +29°C° 0 mm 2 mps 733 mmHg 74%
21:00 +29°C° 0 mm 2 mps 734 mmHg 75%
22:00 +28°C° 0.1 mm 3 mps 733 mmHg 77%
23:00 +28°C° 0.1 mm 3 mps 733 mmHg 79%

18 Agosto, Martes

Tiempo Temperatura Precipitaciones Viento Presión Humedad
00:00 +27°C° 0.1 mm 4 mps 733 mmHg 81%
01:00 +27°C° 0.1 mm 4 mps 733 mmHg 83%
02:00 +26°C° 0.1 mm 3 mps 733 mmHg 85%
03:00 +26°C° 0.1 mm 3 mps 732 mmHg 87%
04:00 +25°C° 0.3 mm 4 mps 733 mmHg 88%
05:00 +25°C° 0.3 mm 4 mps 733 mmHg 90%
06:00 +25°C° 0.3 mm 5 mps 733 mmHg 91%
07:00 +26°C° 0 mm 5 mps 734 mmHg 86%
08:00 +27°C° 0 mm 5 mps 734 mmHg 81%
09:00 +29°C° 0 mm 5 mps 735 mmHg 76%
10:00 +30°C° 0 mm 5 mps 734 mmHg 70%
11:00 +33°C° 0 mm 4 mps 734 mmHg 65%
12:00 +34°C° 0 mm 3 mps 734 mmHg 60%
13:00 +35°C° 0 mm 3 mps 733 mmHg 58%
14:00 +35°C° 0 mm 3 mps 732 mmHg 57%
15:00 +35°C° 0 mm 3 mps 732 mmHg 55%
16:00 +34°C° 0 mm 3 mps 731 mmHg 61%
17:00 +32°C° 0 mm 2 mps 731 mmHg 67%
18:00 +31°C° 0 mm 2 mps 731 mmHg 72%
19:00 +30°C° 0.2 mm 2 mps 731 mmHg 74%
20:00 +29°C° 0.2 mm 2 mps 732 mmHg 76%
21:00 +29°C° 0.2 mm 2 mps 732 mmHg 78%
22:00 +28°C° 0 mm 2 mps 732 mmHg 79%
23:00 +28°C° 0 mm 3 mps 732 mmHg 81%
Mostrar más